Location: Miami, Florida
(25.6830°N, 80.1700°W)
Time: 11:29:31
(UTC-04:00)

Hubble Space Telescope - Pass Details

Date: 19 November 2017
Orbit: 537 x 541 km, 28.5° (Epoch: 20 November)

Event Time Altitude Azimuth Distance (km) Brightness Sun altitude
Exits shadow 05:19:27 21° 82° (E) 1,216 3.2 -31.7°
Drops below altitude 10° 05:20:56 10° 79° (E) 1,780 4.2 -31.4°
Sets 05:23:12 0° 77° (ENE) 2,672 5.3 -30.9°
